| time (UTC) | temp F | wind direction | speed MPH | gust MPH | rain 1hr in | rain 24hr in | rain mn in | humidity % | barometer mb |
| 20260903164004 | 91 | 204 | 8.0 | 13.0 | 0.00 | 0.00 | 0.00 | 47 | 1017.0 |
| 20260903163504 | 91 | 287 | 8.0 | 10.0 | 0.00 | 0.00 | 0.00 | 49 | 1017.0 |
| 20260903163003 | 90 | 271 | 6.0 | 11.0 | 0.00 | 0.00 | 0.00 | 48 | 1016.9 |
| 20260903162502 | 90 | 298 | 7.0 | 13.0 | 0.00 | 0.00 | 0.00 | 48 | 1017.0 |
| 20260903162002 | 90 | 205 | 9.0 | 10.0 | 0.00 | 0.00 | 0.00 | 50 | 1017.0 |
| 20260903161001 | 90 | 246 | 8.0 | 10.0 | 0.00 | 0.00 | 0.00 | 50 | 1017.2 |
| 20260903160500 | 90 | 214 | 4.0 | 11.0 | 0.00 | 0.00 | 0.00 | 52 | 1017.1 |
| 20260903160000 | 90 | 180 | 3.0 | 7.0 | 0.00 | 0.00 | 0.00 | 53 | 1017.1 |
| 20260903155459 | 89 | 267 | 5.0 | 10.0 | 0.00 | 0.00 | 0.00 | 53 | 1017.2 |
| 20260903154959 | 89 | 263 | 7.0 | 9.0 | 0.00 | 0.00 | 0.00 | 53 | 1017.2 |
| 20260903153958 | 89 | 269 | 4.0 | 9.0 | 0.00 | 0.00 | 0.00 | 54 | 1017.2 |
| 20260903153457 | 88 | 218 | 7.0 | 10.0 | 0.00 | 0.00 | 0.00 | 54 | 1017.2 |
| 20260903152957 | 88 | 203 | 5.0 | 9.0 | 0.00 | 0.00 | 0.00 | 55 | 1017.2 |
| 20260903152456 | 88 | 225 | 6.0 | 11.0 | 0.00 | 0.00 | 0.00 | 55 | 1017.2 |
| 20260903151956 | 88 | 243 | 4.0 | 8.0 | 0.00 | 0.00 | 0.00 | 56 | 1017.3 |
| 20260903151455 | 88 | 255 | 3.0 | 10.0 | 0.00 | 0.00 | 0.00 | 56 | 1017.3 |
| 20260903150955 | 87 | 277 | 6.0 | 8.0 | 0.00 | 0.00 | 0.00 | 55 | 1017.2 |
| 20260903150454 | 87 | 269 | 2.0 | 10.0 | 0.00 | 0.00 | 0.00 | 57 | 1017.1 |
| 20260903145954 | 87 | 242 | 4.0 | 9.0 | 0.00 | 0.00 | 0.00 | 57 | 1017.2 |
| 20260903145453 | 86 | 267 | 6.0 | 8.0 | 0.00 | 0.00 | 0.00 | 57 | 1017.1 |
| 20260903144953 | 86 | 219 | 6.0 | 9.0 | 0.00 | 0.00 | 0.00 | 59 | 1017.0 |
| 20260903143450 | 85 | 210 | 8.0 | 10.0 | 0.00 | 0.00 | 0.00 | 60 | 1017.2 |
| 20260903142950 | 85 | 219 | 6.0 | 9.0 | 0.00 | 0.00 | 0.00 | 60 | 1017.1 |
| 20260903142449 | 85 | 252 | 6.0 | 9.0 | 0.00 | 0.00 | 0.00 | 60 | 1017.2 |
| 20260903141948 | 84 | 269 | 5.0 | 9.0 | 0.00 | 0.00 | 0.00 | 61 | 1017.1 |
| 20260903141448 | 84 | 253 | 6.0 | 9.0 | 0.00 | 0.00 | 0.00 | 61 | 1017.2 |
| 20260903140947 | 84 | 204 | 7.0 | 7.0 | 0.00 | 0.00 | 0.00 | 61 | 1017.1 |
| 20260903140447 | 84 | 200 | 2.0 | 7.0 | 0.00 | 0.00 | 0.00 | 62 | 1017.1 |
| 20260903135945 | 84 | 253 | 5.0 | 8.0 | 0.00 | 0.00 | 0.00 | 63 | 1017.1 |
| 20260903135445 | 84 | 277 | 4.0 | 7.0 | 0.00 | 0.00 | 0.00 | 63 | 1017.2 |
| 20260903134944 | 83 | 243 | 4.0 | 6.0 | 0.00 | 0.00 | 0.00 | 63 | 1017.3 |
| 20260903134444 | 83 | 267 | 3.0 | 5.0 | 0.00 | 0.00 | 0.00 | 64 | 1017.3 |
| 20260903133943 | 83 | 271 | 3.0 | 8.0 | 0.00 | 0.00 | 0.00 | 64 | 1017.3 |
| 20260903133442 | 83 | 243 | 5.0 | 6.0 | 0.00 | 0.00 | 0.00 | 63 | 1017.3 |
| 20260903132940 | 82 | 243 | 3.0 | 6.0 | 0.00 | 0.00 | 0.00 | 66 | 1017.4 |
| 20260903131939 | 82 | 231 | 3.0 | 9.0 | 0.00 | 0.00 | 0.00 | 65 | 1017.5 |
| 20260903131439 | 82 | 245 | 8.0 | 9.0 | 0.00 | 0.00 | 0.00 | 64 | 1017.4 |
| 20260903131031 | 82 | 228 | 4.0 | 3.0 | 0.00 | 0.00 | 0.00 | 66 | 1017.6 |
| 20260903130938 | 82 | 228 | 4.0 | 3.0 | 0.00 | 0.00 | 0.00 | 66 | 1017.6 |
| 20260903130438 | 82 | 211 | 1.0 | 5.0 | 0.00 | 0.00 | 0.00 | 67 | 1017.6 |
| 20260903125937 | 82 | 194 | 0.0 | 3.0 | 0.00 | 0.00 | 0.00 | 68 | 1017.6 |
| 20260903125435 | 81 | 150 | 2.0 | 3.0 | 0.00 | 0.00 | 0.00 | 68 | 1017.5 |
| 20260903124936 | 81 | 150 | 1.0 | 0.0 | 0.00 | 0.00 | 0.00 | 69 | 1017.6 |
| 20260903124435 | 81 | 204 | 0.0 | 0.0 | 0.00 | 0.00 | 0.00 | 70 | 1017.6 |
| 20260903123934 | 80 | 204 | 0.0 | 0.0 | 0.00 | 0.00 | 0.00 | 70 | 1017.7 |
| 20260903123433 | 80 | 204 | 0.0 | 0.0 | 0.00 | 0.00 | 0.00 | 72 | 1017.7 |
| 20260903122933 | 80 | 204 | 0.0 | 0.0 | 0.00 | 0.00 | 0.00 | 72 | 1017.6 |
| 20260903122432 | 80 | 146 | 0.0 | 2.0 | 0.00 | 0.00 | 0.00 | 73 | 1017.7 |
| 20260903121932 | 79 | 146 | 0.0 | 1.0 | 0.00 | 0.00 | 0.00 | 73 | 1017.7 |
| 20260903121431 | 79 | 180 | 0.0 | 2.0 | 0.00 | 0.00 | 0.00 | 74 | 1017.7 |
| 20260903120931 | 79 | 170 | 0.0 | 0.0 | 0.00 | 0.00 | 0.00 | 74 | 1017.7 |
| 20260903120430 | 79 | 183 | 0.0 | 0.0 | 0.00 | 0.00 | 0.00 | 75 | 1017.6 |
| 20260903115427 | 78 | 183 | 0.0 | 0.0 | 0.00 | 0.00 | 0.00 | 76 | 1017.5 |
| 20260903114927 | 78 | 183 | 0.0 | 0.0 | 0.00 | 0.00 | 0.00 | 77 | 1017.5 |
| 20260903114426 | 78 | 183 | 0.0 | 0.0 | 0.00 | 0.00 | 0.00 | 77 | 1017.5 |
| 20260903113926 | 78 | 183 | 0.0 | 0.0 | 0.00 | 0.00 | 0.00 | 78 | 1017.4 |
| 20260903112424 | 78 | 181 | 0.0 | 2.0 | 0.00 | 0.00 | 0.00 | 77 | 1017.3 |
| 20260903111924 | 78 | 165 | 0.0 | 0.0 | 0.00 | 0.00 | 0.00 | 77 | 1017.3 |
| 20260903111423 | 78 | 165 | 0.0 | 0.0 | 0.00 | 0.00 | 0.00 | 77 | 1017.3 |
| 20260903110923 | 78 | 165 | 0.0 | 0.0 | 0.00 | 0.00 | 0.00 | 77 | 1017.1 |
| 20260903110422 | 78 | 165 | 0.0 | 0.0 | 0.00 | 0.00 | 0.00 | 77 | 1017.1 |
| 20260903105921 | 78 | 165 | 0.0 | 0.0 | 0.00 | 0.00 | 0.00 | 77 | 1017.1 |
| 20260903104919 | 78 | 165 | 0.0 | 0.0 | 0.00 | 0.00 | 0.00 | 77 | 1017.0 |
| 20260903104419 | 78 | 165 | 0.0 | 2.0 | 0.00 | 0.00 | 0.00 | 77 | 1016.9 |
| 20260903103918 | 78 | 155 | 0.0 | 1.0 | 0.00 | 0.00 | 0.00 | 77 | 1016.9 |
| 20260903103417 | 78 | 159 | 0.0 | 3.0 | 0.00 | 0.00 | 0.00 | 77 | 1016.8 |
| 20260903102916 | 78 | 174 | 0.0 | 2.0 | 0.00 | 0.00 | 0.00 | 77 | 1016.8 |
| 20260903102415 | 78 | 146 | 0.0 | 1.0 | 0.00 | 0.00 | 0.00 | 77 | 1016.9 |
| 20260903101914 | 78 | 138 | 0.0 | 0.0 | 0.00 | 0.00 | 0.00 | 77 | 1016.8 |
| 20260903101414 | 78 | 138 | 0.0 | 1.0 | 0.00 | 0.00 | 0.00 | 77 | 1016.8 |
| 20260903100913 | 78 | 138 | 0.0 | 0.0 | 0.00 | 0.00 | 0.00 | 77 | 1016.9 |
| 20260903100413 | 78 | 238 | 0.0 | 0.0 | 0.00 | 0.00 | 0.00 | 77 | 1016.9 |
| 20260903095912 | 79 | 238 | 0.0 | 0.0 | 0.00 | 0.00 | 0.00 | 77 | 1016.8 |
| 20260903095411 | 79 | 238 | 0.0 | 0.0 | 0.00 | 0.00 | 0.00 | 77 | 1016.8 |
| 20260903094911 | 79 | 238 | 0.0 | 0.0 | 0.00 | 0.00 | 0.00 | 77 | 1016.8 |
| 20260903094411 | 78 | 238 | 0.0 | 1.0 | 0.00 | 0.00 | 0.00 | 77 | 1016.7 |
| 20260903093910 | 78 | 167 | 0.0 | 3.0 | 0.00 | 0.00 | 0.00 | 78 | 1016.8 |
| 20260903093409 | 78 | 134 | 0.0 | 2.0 | 0.00 | 0.00 | 0.00 | 78 | 1016.7 |
| 20260903092909 | 78 | 149 | 0.0 | 0.0 | 0.00 | 0.00 | 0.00 | 79 | 1016.7 |
| 20260903092408 | 78 | 180 | 0.0 | 0.0 | 0.00 | 0.00 | 0.00 | 79 | 1016.6 |
| 20260903091907 | 78 | 180 | 0.0 | 0.0 | 0.00 | 0.00 | 0.00 | 78 | 1016.6 |
| 20260903091406 | 78 | 180 | 0.0 | 0.0 | 0.00 | 0.00 | 0.00 | 78 | 1016.6 |
| 20260903090906 | 78 | 180 | 0.0 | 0.0 | 0.00 | 0.00 | 0.00 | 78 | 1016.7 |
| 20260903090405 | 78 | 180 | 0.0 | 0.0 | 0.00 | 0.00 | 0.00 | 78 | 1016.7 |
| 20260903085905 | 78 | 180 | 0.0 | 0.0 | 0.00 | 0.00 | 0.00 | 77 | 1016.6 |
| 20260903085404 | 78 | 180 | 0.0 | 0.0 | 0.00 | 0.00 | 0.00 | 77 | 1016.6 |
| 20260903084904 | 79 | 180 | 0.0 | 0.0 | 0.00 | 0.00 | 0.00 | 77 | 1016.7 |
| 20260903084403 | 79 | 180 | 0.0 | 0.0 | 0.00 | 0.00 | 0.00 | 76 | 1016.7 |
| 20260903083902 | 79 | 180 | 0.0 | 0.0 | 0.00 | 0.00 | 0.00 | 76 | 1016.7 |
| 20260903083401 | 79 | 180 | 0.0 | 0.0 | 0.00 | 0.00 | 0.00 | 76 | 1016.7 |
| 20260903082901 | 79 | 180 | 0.0 | 0.0 | 0.00 | 0.00 | 0.00 | 76 | 1016.7 |
| 20260903082400 | 79 | 180 | 0.0 | 0.0 | 0.00 | 0.00 | 0.00 | 75 | 1016.7 |
| 20260903081900 | 79 | 180 | 0.0 | 0.0 | 0.00 | 0.00 | 0.00 | 75 | 1016.7 |
| 20260903081359 | 79 | 180 | 0.0 | 0.0 | 0.00 | 0.00 | 0.00 | 75 | 1016.8 |
| 20260903080858 | 79 | 180 | 0.0 | 0.0 | 0.00 | 0.00 | 0.00 | 75 | 1016.7 |
| 20260903075856 | 79 | 180 | 0.0 | 0.0 | 0.00 | 0.00 | 0.00 | 74 | 1016.7 |
| 20260903075356 | 80 | 180 | 0.0 | 0.0 | 0.00 | 0.00 | 0.00 | 74 | 1016.6 |
| 20260903074856 | 80 | 180 | 0.0 | 0.0 | 0.00 | 0.00 | 0.00 | 73 | 1016.7 |
| 20260903074355 | 80 | 180 | 0.0 | 0.0 | 0.00 | 0.00 | 0.00 | 73 | 1016.6 |
| 20260903073854 | 80 | 180 | 0.0 | 0.0 | 0.00 | 0.00 | 0.00 | 73 | 1016.7 |
| 20260903073353 | 80 | 180 | 0.0 | 0.0 | 0.00 | 0.00 | 0.00 | 73 | 1016.6 |
| 20260903072852 | 80 | 180 | 0.0 | 0.0 | 0.00 | 0.00 | 0.00 | 72 | 1016.6 |
| 20260903072352 | 80 | 180 | 0.0 | 0.0 | 0.00 | 0.00 | 0.00 | 71 | 1016.6 |
| 20260903071851 | 80 | 180 | 0.0 | 0.0 | 0.00 | 0.00 | 0.00 | 71 | 1016.6 |
| 20260903070850 | 81 | 180 | 0.0 | 0.0 | 0.00 | 0.00 | 0.00 | 70 | 1016.6 |
| 20260903070350 | 81 | 180 | 0.0 | 0.0 | 0.00 | 0.00 | 0.00 | 69 | 1016.6 |
| 20260903065849 | 81 | 180 | 0.0 | 0.0 | 0.00 | 0.00 | 0.00 | 69 | 1016.6 |
| 20260903065349 | 82 | 180 | 0.0 | 0.0 | 0.00 | 0.00 | 0.00 | 68 | 1016.6 |
| 20260903064848 | 82 | 180 | 0.0 | 0.0 | 0.00 | 0.00 | 0.00 | 68 | 1016.6 |
| 20260903064348 | 82 | 180 | 0.0 | 0.0 | 0.00 | 0.00 | 0.00 | 67 | 1016.7 |
| 20260903063847 | 82 | 180 | 0.0 | 0.0 | 0.00 | 0.00 | 0.00 | 68 | 1016.6 |
| 20260903063347 | 81 | 180 | 0.0 | 0.0 | 0.00 | 0.00 | 0.00 | 68 | 1016.6 |
| 20260903062846 | 81 | 180 | 0.0 | 1.0 | 0.00 | 0.00 | 0.00 | 69 | 1016.7 |
| 20260903062345 | 81 | 180 | 0.0 | 1.0 | 0.00 | 0.00 | 0.00 | 69 | 1016.7 |
| 20260903061344 | 80 | 243 | 0.0 | 0.0 | 0.00 | 0.00 | 0.00 | 71 | 1016.6 |
| 20260903060843 | 80 | 243 | 0.0 | 0.0 | 0.00 | 0.00 | 0.00 | 71 | 1016.7 |
| 20260903060342 | 80 | 243 | 0.0 | 0.0 | 0.00 | 0.00 | 0.00 | 71 | 1016.6 |
| 20260903055842 | 80 | 243 | 0.0 | 0.0 | 0.00 | 0.00 | 0.00 | 71 | 1016.7 |
| 20260903055430 | 80 | 243 | 0.0 | 0.0 | 0.00 | 0.00 | 0.00 | 72 | 1016.6 |
| 20260903055341 | 80 | 243 | 0.0 | 0.0 | 0.00 | 0.00 | 0.00 | 72 | 1016.6 |
| 20260903054841 | 80 | 243 | 0.0 | 0.0 | 0.00 | 0.00 | 0.00 | 72 | 1016.6 |
| 20260903053840 | 80 | 243 | 0.0 | 0.0 | 0.00 | 0.00 | 0.00 | 71 | 1016.7 |
| 20260903053339 | 80 | 243 | 0.0 | 0.0 | 0.00 | 0.00 | 0.00 | 71 | 1016.6 |
| 20260903052838 | 80 | 243 | 0.0 | 0.0 | 0.00 | 0.00 | 0.00 | 71 | 1016.6 |
| 20260903052337 | 80 | 243 | 0.0 | 0.0 | 0.00 | 0.00 | 0.00 | 71 | 1016.6 |
| 20260903051837 | 81 | 243 | 0.0 | 0.0 | 0.00 | 0.00 | 0.00 | 70 | 1016.5 |
| 20260903050835 | 81 | 243 | 0.0 | 0.0 | 0.00 | 0.00 | 0.00 | 69 | 1016.4 |
| 20260903045834 | 81 | 243 | 0.0 | 0.0 | 0.00 | 0.00 | 0.00 | 69 | 1016.4 |
| 20260903045333 | 81 | 243 | 0.0 | 0.0 | 0.00 | 0.00 | 0.00 | 68 | 1016.4 |
| 20260903044331 | 82 | 243 | 0.0 | 0.0 | 0.00 | 0.00 | 0.00 | 67 | 1016.4 |
| 20260903043830 | 82 | 243 | 0.0 | 0.0 | 0.00 | 0.00 | 0.00 | 67 | 1016.3 |
| 20260903043330 | 82 | 180 | 0.0 | 0.0 | 0.00 | 0.00 | 0.00 | 67 | 1016.3 |
| 20260903042828 | 82 | 180 | 0.0 | 0.0 | 0.00 | 0.00 | 0.00 | 66 | 1016.3 |
| 20260903042328 | 82 | 180 | 0.0 | 0.0 | 0.00 | 0.00 | 0.00 | 66 | 1016.3 |
| 20260903041826 | 82 | 180 | 0.0 | 0.0 | 0.00 | 0.00 | 0.00 | 65 | 1016.2 |
| 20260903041326 | 83 | 180 | 0.0 | 0.0 | 0.00 | 0.00 | 0.00 | 65 | 1016.2 |
| 20260903040824 | 83 | 180 | 0.0 | 1.0 | 0.00 | 0.00 | 0.00 | 65 | 1016.2 |
| 20260903040325 | 83 | 173 | 0.0 | 0.0 | 0.00 | 0.00 | 0.00 | 64 | 1016.2 |
| 20260903035823 | 83 | 208 | 0.0 | 0.0 | 0.00 | 0.00 | 0.00 | 63 | 1016.3 |
| 20260903035323 | 84 | 208 | 0.0 | 0.0 | 0.00 | 0.00 | 0.00 | 62 | 1016.3 |
| 20260903034822 | 85 | 208 | 0.0 | 0.0 | 0.00 | 0.00 | 0.00 | 61 | 1016.3 |
| 20260903034322 | 85 | 208 | 0.0 | 3.0 | 0.00 | 0.00 | 0.00 | 60 | 1016.3 |
| 20260903033821 | 85 | 204 | 1.0 | 4.0 | 0.00 | 0.00 | 0.00 | 60 | 1016.4 |
| 20260903033321 | 85 | 142 | 1.0 | 3.0 | 0.00 | 0.00 | 0.00 | 60 | 1016.4 |
| 20260903032820 | 85 | 207 | 1.0 | 1.0 | 0.00 | 0.00 | 0.00 | 60 | 1016.4 |
| 20260903032320 | 85 | 179 | 1.0 | 3.0 | 0.00 | 0.00 | 0.00 | 59 | 1016.5 |
| 20260903031819 | 86 | 142 | 0.0 | 3.0 | 0.00 | 0.00 | 0.00 | 59 | 1016.6 |
| 20260903031318 | 86 | 94 | 0.0 | 0.0 | 0.00 | 0.00 | 0.00 | 59 | 1016.5 |
| 20260903030818 | 86 | 94 | 0.0 | 4.0 | 0.00 | 0.00 | 0.00 | 58 | 1016.5 |
| 20260903030317 | 86 | 177 | 3.0 | 4.0 | 0.00 | 0.00 | 0.00 | 58 | 1016.6 |
| 20260903025814 | 86 | 181 | 2.0 | 5.0 | 0.00 | 0.00 | 0.00 | 57 | 1016.6 |
| 20260903025314 | 86 | 236 | 2.0 | 3.0 | 0.00 | 0.00 | 0.00 | 57 | 1016.6 |
| 20260903024813 | 86 | 218 | 0.0 | 0.0 | 0.00 | 0.00 | 0.00 | 57 | 1016.5 |
| 20260903024312 | 86 | 218 | 0.0 | 3.0 | 0.00 | 0.00 | 0.00 | 57 | 1016.5 |
| 20260903023812 | 86 | 249 | 3.0 | 5.0 | 0.00 | 0.00 | 0.00 | 57 | 1016.6 |
| 20260903023312 | 87 | 238 | 2.0 | 5.0 | 0.00 | 0.00 | 0.00 | 57 | 1016.7 |
| 20260903022811 | 87 | 238 | 1.0 | 5.0 | 0.00 | 0.00 | 0.00 | 57 | 1016.7 |
| 20260903022310 | 87 | 239 | 3.0 | 4.0 | 0.00 | 0.00 | 0.00 | 56 | 1016.6 |
| 20260903021810 | 87 | 204 | 2.0 | 3.0 | 0.00 | 0.00 | 0.00 | 56 | 1016.7 |
| 20260903021309 | 87 | 193 | 2.0 | 4.0 | 0.00 | 0.00 | 0.00 | 55 | 1016.6 |
| 20260903020308 | 88 | 229 | 2.0 | 5.0 | 0.00 | 0.00 | 0.00 | 55 | 1016.6 |
| 20260903015808 | 88 | 231 | 2.0 | 5.0 | 0.00 | 0.00 | 0.00 | 55 | 1016.6 |
| 20260903015307 | 88 | 215 | 0.0 | 4.0 | 0.00 | 0.00 | 0.00 | 55 | 1016.7 |
| 20260903014807 | 88 | 215 | 4.0 | 5.0 | 0.00 | 0.00 | 0.00 | 55 | 1016.6 |
| 20260903013806 | 88 | 201 | 0.0 | 0.0 | 0.00 | 0.00 | 0.00 | 54 | 1016.6 |
| 20260903013305 | 88 | 201 | 0.0 | 8.0 | 0.00 | 0.00 | 0.00 | 54 | 1016.6 |
| 20260903012804 | 88 | 218 | 2.0 | 5.0 | 0.00 | 0.00 | 0.00 | 53 | 1016.5 |
| 20260903012306 | 88 | 214 | 3.0 | 6.0 | 0.00 | 0.00 | 0.00 | 53 | 1016.5 |
| 20260903011302 | 88 | 231 | 3.0 | 6.0 | 0.00 | 0.00 | 0.00 | 53 | 1016.3 |
| 20260903010801 | 89 | 231 | 3.0 | 5.0 | 0.00 | 0.00 | 0.00 | 53 | 1016.2 |
| 20260903010301 | 89 | 224 | 4.0 | 8.0 | 0.00 | 0.00 | 0.00 | 53 | 1016.1 |
| 20260903005800 | 89 | 214 | 4.0 | 6.0 | 0.00 | 0.00 | 0.00 | 53 | 1016.2 |
| 20260903005300 | 89 | 231 | 2.0 | 6.0 | 0.00 | 0.00 | 0.00 | 52 | 1016.1 |
| 20260903004759 | 89 | 236 | 1.0 | 5.0 | 0.00 | 0.00 | 0.00 | 52 | 1016.1 |
| 20260903004259 | 89 | 203 | 2.0 | 7.0 | 0.00 | 0.00 | 0.00 | 52 | 1016.1 |
| 20260903003758 | 89 | 219 | 2.0 | 6.0 | 0.00 | 0.00 | 0.00 | 51 | 1016.1 |
| 20260903003258 | 90 | 221 | 4.0 | 7.0 | 0.00 | 0.00 | 0.00 | 51 | 1016.0 |
| 20260903002757 | 90 | 194 | 4.0 | 7.0 | 0.00 | 0.00 | 0.00 | 50 | 1016.0 |
| 20260903002257 | 90 | 204 | 4.0 | 9.0 | 0.00 | 0.00 | 0.00 | 49 | 1015.9 |
| 20260903001756 | 90 | 240 | 6.0 | 10.0 | 0.00 | 0.00 | 0.00 | 49 | 1016.0 |
| 20260903001256 | 90 | 225 | 3.0 | 8.0 | 0.00 | 0.00 | 0.00 | 49 | 1015.9 |
| 20260903000755 | 90 | 248 | 5.0 | 9.0 | 0.00 | 0.00 | 0.00 | 49 | 1015.9 |
| 20260903000255 | 90 | 225 | 5.0 | 9.0 | 0.00 | 0.00 | 0.00 | 49 | 1015.9 |
| 20260902235754 | 91 | 245 | 4.0 | 8.0 | 0.00 | 0.00 | 0.00 | 48 | 1015.9 |
| 20260902235254 | 91 | 221 | 6.0 | 10.0 | 0.00 | 0.00 | 0.00 | 48 | 1015.9 |
| 20260902234753 | 91 | 238 | 6.0 | 12.0 | 0.00 | 0.00 | 0.00 | 48 | 1015.9 |
| 20260902234253 | 91 | 218 | 5.0 | 9.0 | 0.00 | 0.00 | 0.00 | 47 | 1015.9 |
| 20260902233752 | 91 | 226 | 4.0 | 9.0 | 0.00 | 0.00 | 0.00 | 47 | 1015.8 |
| 20260902233251 | 91 | 224 | 6.0 | 11.0 | 0.00 | 0.00 | 0.00 | 47 | 1015.9 |
| 20260902232751 | 91 | 229 | 7.0 | 11.0 | 0.00 | 0.00 | 0.00 | 47 | 1015.8 |
| 20260902232250 | 92 | 214 | 4.0 | 11.0 | 0.00 | 0.00 | 0.00 | 47 | 1015.9 |
| 20260902231750 | 92 | 226 | 4.0 | 10.0 | 0.00 | 0.00 | 0.00 | 46 | 1015.9 |
| 20260902231249 | 92 | 245 | 7.0 | 10.0 | 0.00 | 0.00 | 0.00 | 46 | 1015.8 |
| 20260902230749 | 92 | 217 | 6.0 | 11.0 | 0.00 | 0.00 | 0.00 | 46 | 1015.9 |
| 20260902230248 | 92 | 229 | 5.0 | 9.0 | 0.00 | 0.00 | 0.00 | 46 | 1015.9 |
| 20260902225247 | 92 | 260 | 9.0 | 12.0 | 0.00 | 0.00 | 0.00 | 45 | 1015.9 |
| 20260902224747 | 93 | 239 | 6.0 | 9.0 | 0.00 | 0.00 | 0.00 | 44 | 1015.9 |
| 20260902224246 | 93 | 212 | 7.0 | 10.0 | 0.00 | 0.00 | 0.00 | 44 | 1015.9 |
| 20260902223746 | 93 | 243 | 6.0 | 11.0 | 0.00 | 0.00 | 0.00 | 44 | 1016.0 |
| 20260902222745 | 93 | 239 | 7.0 | 12.0 | 0.00 | 0.00 | 0.00 | 43 | 1016.0 |
| 20260902222244 | 93 | 276 | 7.0 | 12.0 | 0.00 | 0.00 | 0.00 | 44 | 1016.0 |
| 20260902221743 | 93 | 222 | 6.0 | 9.0 | 0.00 | 0.00 | 0.00 | 43 | 1015.9 |
| 20260902221243 | 94 | 255 | 5.0 | 13.0 | 0.00 | 0.00 | 0.00 | 43 | 1016.0 |
| 20260902220743 | 94 | 263 | 4.0 | 12.0 | 0.00 | 0.00 | 0.00 | 43 | 1015.9 |
| 20260902220242 | 93 | 252 | 9.0 | 16.0 | 0.00 | 0.00 | 0.00 | 41 | 1016.0 |
| 20260902215240 | 93 | 283 | 7.0 | 12.0 | 0.00 | 0.00 | 0.00 | 43 | 1016.0 |
| 20260902214238 | 93 | 239 | 12.0 | 15.0 | 0.00 | 0.00 | 0.00 | 42 | 1016.1 |
| 20260902213734 | 94 | 245 | 5.0 | 15.0 | 0.00 | 0.00 | 0.00 | 42 | 1016.1 |
| 20260902212233 | 93 | 221 | 5.0 | 12.0 | 0.00 | 0.00 | 0.00 | 42 | 1016.1 |
| 20260902211232 | 93 | 208 | 11.0 | 16.0 | 0.00 | 0.00 | 0.00 | 41 | 1016.2 |
| 20260902210730 | 93 | 249 | 10.0 | 16.0 | 0.00 | 0.00 | 0.00 | 41 | 1016.2 |
| 20260902210230 | 93 | 229 | 7.0 | 16.0 | 0.00 | 0.00 | 0.00 | 41 | 1016.3 |
| 20260902205729 | 94 | 236 | 6.0 | 14.0 | 0.00 | 0.00 | 0.00 | 41 | 1016.3 |
| 20260902205229 | 94 | 274 | 6.0 | 11.0 | 0.00 | 0.00 | 0.00 | 42 | 1016.4 |
| 20260902204728 | 94 | 270 | 6.0 | 11.0 | 0.00 | 0.00 | 0.00 | 42 | 1016.4 |
| 20260902204228 | 93 | 287 | 7.0 | 12.0 | 0.00 | 0.00 | 0.00 | 43 | 1016.4 |
| 20260902203727 | 93 | 242 | 8.0 | 13.0 | 0.00 | 0.00 | 0.00 | 42 | 1016.4 |
| 20260902203227 | 94 | 264 | 6.0 | 12.0 | 0.00 | 0.00 | 0.00 | 42 | 1016.5 |
| 20260902202726 | 93 | 274 | 11.0 | 19.0 | 0.00 | 0.00 | 0.00 | 42 | 1016.5 |
| 20260902202225 | 93 | 271 | 11.0 | 15.0 | 0.00 | 0.00 | 0.00 | 42 | 1016.5 |
| 20260902201725 | 93 | 269 | 5.0 | 11.0 | 0.00 | 0.00 | 0.00 | 43 | 1016.5 |
| 20260902201224 | 94 | 271 | 6.0 | 19.0 | 0.00 | 0.00 | 0.00 | 42 | 1016.5 |
| 20260902200724 | 94 | 280 | 7.0 | 15.0 | 0.00 | 0.00 | 0.00 | 42 | 1016.6 |
| 20260902200223 | 93 | 248 | 8.0 | 13.0 | 0.00 | 0.00 | 0.00 | 42 | 1016.6 |
| 20260902195723 | 94 | 240 | 9.0 | 17.0 | 0.00 | 0.00 | 0.00 | 41 | 1016.6 |
| 20260902195222 | 94 | 65 | 3.0 | 11.0 | 0.00 | 0.00 | 0.00 | 42 | 1016.7 |
| 20260902194722 | 93 | 214 | 10.0 | 17.0 | 0.00 | 0.00 | 0.00 | 42 | 1016.8 |
| 20260902194221 | 93 | 259 | 8.0 | 14.0 | 0.00 | 0.00 | 0.00 | 42 | 1016.8 |
| 20260902193721 | 93 | 233 | 10.0 | 16.0 | 0.00 | 0.00 | 0.00 | 41 | 1016.9 |
| 20260902193220 | 93 | 255 | 11.0 | 18.0 | 0.00 | 0.00 | 0.00 | 42 | 1017.0 |
| 20260902192218 | 93 | 217 | 7.0 | 11.0 | 0.00 | 0.00 | 0.00 | 43 | 1017.0 |
| 20260902191217 | 93 | 240 | 7.0 | 12.0 | 0.00 | 0.00 | 0.00 | 42 | 1017.1 |
| 20260902190717 | 93 | 248 | 9.0 | 17.0 | 0.00 | 0.00 | 0.00 | 41 | 1017.2 |
| 20260902190216 | 93 | 243 | 8.0 | 10.0 | 0.00 | 0.00 | 0.00 | 42 | 1017.3 |
| 20260902185716 | 93 | 225 | 8.0 | 16.0 | 0.00 | 0.00 | 0.00 | 41 | 1017.3 |
| 20260902185215 | 94 | 242 | 8.0 | 13.0 | 0.00 | 0.00 | 0.00 | 41 | 1017.3 |
| 20260902184714 | 94 | 155 | 4.0 | 13.0 | 0.00 | 0.00 | 0.00 | 41 | 1017.3 |
| 20260902184214 | 93 | 255 | 7.0 | 12.0 | 0.00 | 0.00 | 0.00 | 41 | 1017.4 |
| 20260902183713 | 93 | 242 | 6.0 | 11.0 | 0.00 | 0.00 | 0.00 | 42 | 1017.3 |
| 20260902183213 | 93 | 222 | 6.0 | 13.0 | 0.00 | 0.00 | 0.00 | 42 | 1017.5 |
| 20260902182712 | 93 | 238 | 8.0 | 16.0 | 0.00 | 0.00 | 0.00 | 43 | 1017.6 |
| 20260902182212 | 92 | 201 | 9.0 | 15.0 | 0.00 | 0.00 | 0.00 | 42 | 1017.6 |
| 20260902181711 | 92 | 217 | 10.0 | 12.0 | 0.00 | 0.00 | 0.00 | 42 | 1017.6 |
| 20260902181211 | 93 | 269 | 3.0 | 14.0 | 0.00 | 0.00 | 0.00 | 44 | 1017.5 |
| 20260902180710 | 92 | 203 | 10.0 | 16.0 | 0.00 | 0.00 | 0.00 | 43 | 1017.6 |
| 20260902180210 | 93 | 219 | 7.0 | 16.0 | 0.00 | 0.00 | 0.00 | 45 | 1017.6 |
| 20260902175709 | 92 | 288 | 10.0 | 14.0 | 0.00 | 0.00 | 0.00 | 45 | 1017.7 |
| 20260902175209 | 92 | 267 | 10.0 | 13.0 | 0.00 | 0.00 | 0.00 | 44 | 1017.8 |
| 20260902174708 | 92 | 242 | 7.0 | 11.0 | 0.00 | 0.00 | 0.00 | 44 | 1017.8 |
| 20260902174208 | 92 | 231 | 7.0 | 15.0 | 0.00 | 0.00 | 0.00 | 45 | 1017.9 |
| 20260902173707 | 92 | 263 | 11.0 | 14.0 | 0.00 | 0.00 | 0.00 | 44 | 1018.1 |
| 20260902173207 | 92 | 260 | 10.0 | 14.0 | 0.00 | 0.00 | 0.00 | 47 | 1018.1 |
| 20260902171705 | 91 | 228 | 9.0 | 16.0 | 0.00 | 0.00 | 0.00 | 47 | 1018.3 |
| 20260902171205 | 91 | 271 | 12.0 | 16.0 | 0.00 | 0.00 | 0.00 | 46 | 1018.4 |
| 20260902170704 | 91 | 278 | 8.0 | 14.0 | 0.00 | 0.00 | 0.00 | 46 | 1018.3 |
| 20260902170204 | 92 | 273 | 7.0 | 14.0 | 0.00 | 0.00 | 0.00 | 47 | 1018.3 |
| 20260902165703 | 91 | 293 | 9.0 | 11.0 | 0.00 | 0.00 | 0.00 | 47 | 1018.3 |
| 20260902165202 | 91 | 248 | 6.0 | 14.0 | 0.00 | 0.00 | 0.00 | 48 | 1018.3 |
| 20260902164702 | 91 | 270 | 7.0 | 12.0 | 0.00 | 0.00 | 0.00 | 47 | 1018.3 |